Weather History for Tri-Cities, TN

Change the Weather History Date:

Wednesday, April 24, 2013

  Actual Average Record
Temperature  
Mean Temperature 59 °F 58 °F  
Max Temperature 73 °F 70 °F 87 °F (1960)
Min Temperature 45 °F 45 °F 28 °F (1986)
Degree Days  
Heating Degree Days 6 8  
Month to date heating degree days 233 262  
Since 1 July heating degree days 4148 4212  
Cooling Degree Days 0 1  
Month to date cooling degree days 6 3  
Year to date cooling degree days 6 4  
Growing Degree Days 9 (Base 50)    
Moisture  
Dew Point 50 °F    
Average Humidity 68    
Maximum Humidity 92    
Minimum Humidity 44    
Precipitation  
Precipitation 0.25 in 0.11 in 1.00 in (1941)
Month to date precipitation 3.33 2.64  
Year to date precipitation 19.80 12.90  
Snow  
Snow 0.00 in 0.00 in - ()
Month to date snowfall 0.0 1.0  
Since 1 July snowfall 9.2 13.2  
Snow Depth 0.00 in    
Sea Level Pressure  
Sea Level Pressure 30.01 in    
Wind  
Wind Speed 8 mph (WSW)    
Max Wind Speed 32 mph    
Max Gust Speed 43 mph    
Visibility 9 miles    
Events Rain    
T = Trace of Precipitation, MM = Missing Value Source: NWS Daily Summary

Daily Weather History Graph

Daily Weather History Graph

Search for Another Location

Airport:

Trip Planner

Search our weather history database for the weather conditions in past years. The results will help you decide how hot, cold, wet, or windy it might be!

Date:

Astronomy

Apr. 24, 2013 Rise Set
Actual Time 6:44 AM EDT 8:11 PM EDT
Civil Twilight 6:16 AM EDT 8:39 PM EDT
Nautical Twilight 5:44 AM EDT 9:11 PM EDT
Astronomical Twilight 5:10 AM EDT 9:46 PM EDT
Moon 7:14 PM EDT (4/24) 5:45 AM EDT (4/24)
Length of Visible Light 14h 22m
Length of Day
13h 27m
Waxing Gibbous, 98% of the Moon is Illuminated
Apr 24
Waxing Gibbous
Apr 25
Full
May 2
Last Quarter
May 9
New
May 18
First Quarter

Hourly Weather History & Observations

Time (EDT) Temp. Dew Point Humidity Pressure Visibility Wind Dir Wind Speed Gust Speed Precip Events Conditions
12:53 AM 52.0 °F 44.1 °F 74% 30.02 in 10.0 mi Calm Calm - N/A   Scattered Clouds
1:53 AM 51.1 °F 43.0 °F 74% 30.02 in 10.0 mi Calm Calm - N/A   Scattered Clouds
2:53 AM 50.0 °F 44.1 °F 80% 30.02 in 10.0 mi Calm Calm - N/A   Scattered Clouds
3:53 AM 46.9 °F 43.0 °F 86% 30.02 in 10.0 mi Calm Calm - N/A   Mostly Cloudy
4:53 AM 45.0 °F 42.1 °F 90% 30.02 in 10.0 mi Calm Calm - N/A   Mostly Cloudy
5:53 AM 46.9 °F 43.0 °F 86% 30.01 in 10.0 mi Calm Calm - N/A   Mostly Cloudy
6:53 AM 46.0 °F 42.1 °F 86% 30.00 in 10.0 mi Calm Calm - N/A   Mostly Cloudy
7:53 AM 51.1 °F 46.0 °F 83% 29.99 in 10.0 mi North 3.5 mph - N/A   Mostly Cloudy
8:53 AM 59.0 °F 48.0 °F 67% 29.98 in 10.0 mi Calm Calm - N/A   Mostly Cloudy
9:53 AM 66.0 °F 48.9 °F 54% 29.95 in 10.0 mi Variable 5.8 mph - N/A   Mostly Cloudy
10:53 AM 69.1 °F 48.9 °F 49% 29.93 in 10.0 mi SSE 5.8 mph - N/A   Mostly Cloudy
11:53 AM 71.1 °F 51.1 °F 49% 29.98 in 10.0 mi WSW 10.4 mph - N/A   Overcast
12:53 PM 72.0 °F 50.0 °F 46% 29.96 in 10.0 mi SW 17.3 mph - N/A   Overcast
1:53 PM 73.0 °F 50.0 °F 44% 29.95 in 10.0 mi WSW 13.8 mph - N/A   Overcast
2:53 PM 73.0 °F 50.0 °F 44% 29.92 in 10.0 mi SSW 13.8 mph - N/A   Overcast
3:26 PM 64.9 °F 55.0 °F 70% 30.02 in 2.0 mi West 24.2 mph 42.6 mph 0.00 in Rain Rain
3:40 PM 62.1 °F 57.0 °F 84% 30.03 in 5.0 mi West 18.4 mph - 0.03 in Rain Light Rain
3:53 PM 62.1 °F 57.0 °F 84% 29.98 in 4.0 mi WSW 10.4 mph - 0.04 in Rain Light Rain
4:53 PM 61.0 °F 57.9 °F 90% 29.99 in 9.0 mi SSW 9.2 mph - 0.05 in Rain Light Rain
5:10 PM 63.0 °F 59.0 °F 87% 30.03 in 10.0 mi SW 11.5 mph - 0.00 in   Overcast
5:53 PM 64.0 °F 59.0 °F 84% 29.98 in 10.0 mi SW 10.4 mph 19.6 mph 0.00 in   Mostly Cloudy
6:12 PM 64.0 °F 57.9 °F 80% 30.02 in 10.0 mi SW 12.7 mph 23.0 mph N/A   Overcast
6:53 PM 64.0 °F 57.9 °F 80% 29.99 in 10.0 mi SW 11.5 mph - N/A   Overcast
7:37 PM 62.1 °F 57.9 °F 86% 30.02 in 1.0 mi West 12.7 mph - 0.03 in Rain Heavy Rain
7:45 PM 61.0 °F 57.9 °F 90% 30.02 in 3.0 mi WSW 12.7 mph - 0.14 in Rain Light Rain
7:53 PM 60.1 °F 57.0 °F 90% 29.99 in 4.0 mi West 20.7 mph 27.6 mph 0.16 in Rain Light Rain
8:39 PM 55.0 °F 50.0 °F 83% 30.07 in 10.0 mi NW 17.3 mph - 0.00 in   Overcast
8:53 PM 54.0 °F 48.9 °F 83% 30.05 in 10.0 mi WNW 19.6 mph 25.3 mph 0.00 in Rain Light Rain
9:53 PM 51.1 °F 46.9 °F 86% 30.12 in 10.0 mi WSW 9.2 mph - 0.00 in Rain Light Rain
10:53 PM 50.0 °F 46.0 °F 86% 30.15 in 10.0 mi West 9.2 mph - 0.00 in   Overcast
11:53 PM 48.9 °F 44.1 °F 83% 30.16 in 10.0 mi North 10.4 mph - 0.00 in   Overcast